Location: Dob?e?
(49.9411°N, 15.1496°E)
Time: 19:47:52
(UTC+00:00)

DELFI C3 - Pass Details

Date: 27 October 2021
Orbit: 529 x 543 km, 97.4° (Epoch: 04 December)

Event Time Altitude Azimuth Distance (km) Brightness Sun altitude
Exits shadow 16:31:40 11° 78° (ENE) 1,750 ? -8.1°
Maximum altitude 16:32:57 12° 58° (ENE) 1,660 ? -8.3°
Drops below altitude 10° 16:34:26 10° 35° (NE) 1,789 ? -8.5°
Sets 16:37:44 0° 5° (N) 2,687 ? -9.1°
